Location: Ballingbuur
(53.0000°N, 5.7667°E)
Time: 19:49:53
(UTC+00:00)

Cosmos 1356 - Pass Details

Date: 15 April 2021
Orbit: 438 x 442 km, 81.1° (Epoch: 13 May)

Event Time Altitude Azimuth Distance (km) Brightness Sun altitude
Rises 21:18:34 0° 336° (NNW) 2,453 8.6 -20.4°
Reaches altitude 10° 21:20:55 10° 321° (NW) 1,576 7.4 -20.6°
Maximum altitude 21:23:39 22° 268° (W) 1,012 5.5 -20.8°
Enters shadow 21:24:58 18° 236° (SW) 1,161 5.5 -20.9°
